Weather History for Midland, MI

Change the Weather History Date:

Friday, January 3, 2014

  Actual Average (KMBS) Record (KMBS)
Temperature  
Mean Temperature 0 °F 23 °F  
Max Temperature 14 °F 30 °F 55 °F (2004)
Min Temperature -14 °F 17 °F -7 °F (2014)
Degree Days  
Heating Degree Days 65    
Month to date heating degree days  
Since 1 July heating degree days  
Cooling Degree Days 0    
Month to date cooling degree days  
Year to date cooling degree days  
Moisture  
Dew Point -6 °F    
Average Humidity 68    
Maximum Humidity 84    
Minimum Humidity 57    
Precipitation  
Precipitation 0.00 in 0.06 in 0.36 in (1999)
Month to date precipitation 0.19  
Year to date precipitation 0.19  
Snow  
Snow 0.00 in - - ()
Month to date snowfall  
Since 1 July snowfall  
Snow Depth -    
Sea Level Pressure  
Sea Level Pressure 30.27 in    
Wind  
Wind Speed 4 mph (South)    
Max Wind Speed 17 mph    
Max Gust Speed 26 mph    
Visibility 10 miles    
Events      
T = Trace of Precipitation, MM = Missing Value Source: NWS Daily Summary

Daily Weather History Graph

Daily Weather History Graph

Search for Another Location

Airport:

Trip Planner

Search our weather history database for the weather conditions in past years. The results will help you decide how hot, cold, wet, or windy it might be!

Date:

Astronomy

Jan. 03, 2014 Rise Set
Actual Time 8:10 AM EST 5:12 PM EST
Civil Twilight 7:38 AM EST 5:45 PM EST
Nautical Twilight 7:02 AM EST 6:21 PM EST
Astronomical Twilight 6:27 AM EST 6:56 PM EST
Moon 9:30 AM EST (1/3) 8:27 PM EST (1/3)
Length of Visible Light 10h 07m
Length of Day
9h 02m
Waxing Crescent, 8% of the Moon is Illuminated
Jan 3
Waxing Crescent
Jan 7
First Quarter
Jan 15
Full
Jan 24
Last Quarter
Jan 30
New

Hourly Weather History & Observations

Time (EST) Temp. Windchill Dew Point Humidity Pressure Visibility Wind Dir Wind Speed Gust Speed Precip Events Conditions
12:12 AM -5.4 °F -14.1 °F -9.2 °F 84% 30.32 in 10.0 mi NW 3.5 mph - N/A   Clear
12:32 AM -4.4 °F - -8.3 °F 83% 30.32 in 10.0 mi Calm Calm - N/A   Clear
12:52 AM -8.0 °F - -12.3 °F 81% 30.31 in 10.0 mi Calm Calm - N/A   Clear
1:12 AM -7.6 °F - -11.7 °F 82% 30.31 in 10.0 mi Calm Calm - N/A   Clear
1:32 AM -8.1 °F - -12.6 °F 81% 30.32 in 10.0 mi Calm Calm - N/A   Clear
1:52 AM -8.5 °F - -13.0 °F 81% 30.32 in 10.0 mi Calm Calm - N/A   Clear
2:12 AM -9.6 °F - -14.1 °F 81% 30.32 in 10.0 mi Calm Calm - N/A   Clear
2:31 AM -10.3 °F - -15.2 °F 79% 30.33 in 10.0 mi Calm Calm - N/A   Clear
2:52 AM -10.7 °F - -15.7 °F 78% 30.35 in 10.0 mi Calm Calm - N/A   Clear
3:12 AM -11.4 °F - -16.6 °F 78% 30.35 in 10.0 mi Calm Calm - N/A   Clear
3:31 AM -11.0 °F -20.4 °F -15.5 °F 80% 30.37 in 10.0 mi WNW 3.5 mph - N/A   Clear
3:52 AM -11.6 °F - -17.3 °F 76% 30.36 in 10.0 mi Calm Calm - N/A   Clear
4:12 AM -11.0 °F - -16.1 °F 78% 30.36 in 10.0 mi Calm Calm - N/A   Clear
4:31 AM -11.9 °F - -16.4 °F 80% 30.36 in 10.0 mi Calm Calm - N/A   Clear
4:52 AM -12.8 °F - -17.5 °F 80% 30.37 in 10.0 mi Calm Calm - N/A   Clear
5:12 AM -12.5 °F - -17.7 °F 78% 30.37 in 10.0 mi Calm Calm - N/A   Clear
5:31 AM -14.1 °F - -18.9 °F 79% 30.37 in 10.0 mi Calm Calm - N/A   Clear
5:52 AM -13.4 °F - -18.4 °F 78% 30.37 in 10.0 mi Calm Calm - N/A   Clear
6:12 AM -13.4 °F - -18.4 °F 78% 30.38 in 10.0 mi Calm Calm - N/A   Mostly Cloudy
6:31 AM -13.0 °F - -18.4 °F 77% 30.38 in 10.0 mi Calm Calm - N/A   Overcast
6:52 AM -12.1 °F - -17.3 °F 78% 30.39 in 10.0 mi Calm Calm - N/A   Overcast
7:12 AM -12.6 °F - -18.0 °F 77% 30.39 in 10.0 mi Calm Calm - N/A   Overcast
7:32 AM -11.6 °F - -16.6 °F 78% 30.39 in 10.0 mi Calm Calm - N/A   Overcast
7:52 AM -10.1 °F - -15.0 °F 79% 30.38 in 10.0 mi Calm Calm - N/A   Overcast
8:12 AM -9.0 °F - -14.3 °F 78% 30.39 in 10.0 mi Calm Calm - N/A   Overcast
8:32 AM -7.6 °F - -12.5 °F 79% 30.39 in 10.0 mi Calm Calm - N/A   Overcast
8:52 AM -6.3 °F - -11.0 °F 80% 30.39 in 10.0 mi Calm Calm - N/A   Overcast
9:12 AM -4.2 °F - -8.7 °F 81% 30.39 in 10.0 mi Calm Calm - N/A   Overcast
9:32 AM -3.5 °F - -8.1 °F 80% 30.38 in 10.0 mi Calm Calm - N/A   Overcast
9:52 AM -2.2 °F - -6.9 °F 80% 30.38 in 10.0 mi Calm Calm - N/A   Overcast
10:12 AM -1.3 °F - -6.3 °F 79% 30.38 in 10.0 mi Calm Calm - N/A   Scattered Clouds
10:32 AM 1.4 °F - -4.0 °F 78% 30.37 in 10.0 mi Calm Calm - N/A   Clear
10:52 AM 6.1 °F -4.3 °F -2.4 °F 68% 30.38 in 10.0 mi South 5.8 mph - N/A   Scattered Clouds
11:12 AM 7.5 °F -5.0 °F -2.6 °F 63% 30.37 in 10.0 mi SSW 8.1 mph - N/A   Mostly Cloudy
11:32 AM 8.6 °F -4.7 °F -2.6 °F 61% 30.37 in 10.0 mi SSW 9.2 mph - N/A   Clear
11:52 AM 8.8 °F -5.3 °F -3.1 °F 59% 30.35 in 10.0 mi South 10.4 mph - N/A   Clear
12:12 PM 9.7 °F -2.4 °F -2.4 °F 58% 30.34 in 10.0 mi SSW 8.1 mph - N/A   Clear
12:32 PM 10.0 °F -1.9 °F -2.2 °F 58% 30.33 in 10.0 mi South 8.1 mph - N/A   Clear
12:52 PM 9.9 °F -4.0 °F -2.4 °F 58% 30.32 in 10.0 mi SW 10.4 mph - N/A   Clear
1:12 PM 10.2 °F -4.3 °F -2.0 °F 58% 30.32 in 10.0 mi South 11.5 mph - N/A   Clear
1:32 PM 10.0 °F -2.9 °F -2.2 °F 58% 30.32 in 10.0 mi South 9.2 mph - N/A   Scattered Clouds
1:52 PM 10.4 °F -1.5 °F -1.5 °F 59% 30.32 in 10.0 mi South 8.1 mph - N/A   Overcast
2:12 PM 10.8 °F -4.3 °F -1.3 °F 58% 30.30 in 10.0 mi South 12.7 mph - N/A   Overcast
2:32 PM 11.3 °F -2.9 °F -0.8 °F 58% 30.29 in 10.0 mi South 11.5 mph 17.3 mph N/A   Mostly Cloudy
2:51 PM 11.3 °F -4.3 °F -0.4 °F 59% 30.27 in 10.0 mi SSW 13.8 mph 19.6 mph N/A   Clear
3:12 PM 12.2 °F -2.5 °F 0.3 °F 59% 30.26 in 10.0 mi South 12.7 mph 18.4 mph N/A   Clear
3:32 PM 12.7 °F -2.5 °F 1.0 °F 60% 30.26 in 10.0 mi South 13.8 mph 20.7 mph N/A   Clear
3:51 PM 13.1 °F -2.6 °F 1.0 °F 59% 30.24 in 10.0 mi South 15.0 mph - N/A   Clear
4:12 PM 13.1 °F -0.7 °F 1.2 °F 59% 30.24 in 10.0 mi South 11.5 mph 19.6 mph N/A   Clear
4:32 PM 13.5 °F -1.5 °F 1.4 °F 59% 30.23 in 10.0 mi South 13.8 mph 18.4 mph N/A   Clear
4:52 PM 13.5 °F -0.9 °F 1.4 °F 59% 30.22 in 10.0 mi South 12.7 mph 17.3 mph N/A   Mostly Cloudy
5:12 PM 13.6 °F 0.7 °F 1.9 °F 60% 30.22 in 10.0 mi South 10.4 mph 16.1 mph N/A   Overcast
5:32 PM 13.8 °F 1.0 °F 1.8 °F 59% 30.22 in 10.0 mi South 10.4 mph - N/A   Overcast
5:52 PM 13.8 °F 1.0 °F 1.6 °F 58% 30.22 in 10.0 mi South 10.4 mph - N/A   Overcast
6:12 PM 13.8 °F 0.2 °F 1.6 °F 58% 30.21 in 10.0 mi South 11.5 mph 18.4 mph N/A   Scattered Clouds
6:32 PM 13.8 °F 1.8 °F 1.9 °F 59% 30.21 in 10.0 mi South 9.2 mph - N/A   Scattered Clouds
6:52 PM 14.0 °F 0.5 °F 2.1 °F 59% 30.19 in 10.0 mi South 11.5 mph 17.3 mph N/A   Mostly Cloudy
7:12 PM 14.4 °F 0.9 °F 2.3 °F 59% 30.18 in 10.0 mi South 11.5 mph 19.6 mph N/A   Overcast
7:32 PM 14.4 °F -1.0 °F 2.1 °F 58% 30.16 in 10.0 mi South 15.0 mph 20.7 mph N/A   Overcast
7:52 PM 14.5 °F -0.7 °F 1.9 °F 57% 30.15 in 10.0 mi South 15.0 mph 18.4 mph N/A   Overcast
8:12 PM 14.4 °F -0.4 °F 2.1 °F 58% 30.14 in 10.0 mi South 13.8 mph 20.7 mph N/A   Overcast
8:32 PM 13.6 °F -0.7 °F 2.3 °F 61% 30.12 in 10.0 mi South 12.7 mph 18.4 mph N/A   Overcast
8:52 PM 13.6 °F 0.0 °F 2.3 °F 61% 30.12 in 10.0 mi South 11.5 mph 20.7 mph N/A   Overcast
9:12 PM 13.8 °F -1.1 °F 2.3 °F 60% 30.09 in 10.0 mi South 13.8 mph 21.9 mph N/A   Scattered Clouds
9:32 PM 14.0 °F -1.4 °F 2.3 °F 60% 30.07 in 10.0 mi South 15.0 mph 19.6 mph N/A   Clear
9:51 PM 14.0 °F -0.2 °F 2.5 °F 60% 30.06 in 10.0 mi South 12.7 mph 21.9 mph N/A   Clear
10:12 PM 14.4 °F -2.0 °F 2.5 °F 59% 30.05 in 10.0 mi South 17.3 mph 23.0 mph N/A   Clear
10:32 PM 14.0 °F -2.5 °F 2.1 °F 59% 30.04 in 10.0 mi South 17.3 mph 24.2 mph N/A   Clear
10:51 PM 14.0 °F -0.2 °F 2.5 °F 60% 30.02 in 10.0 mi South 12.7 mph 24.2 mph N/A   Clear
11:12 PM 14.4 °F -2.0 °F 2.7 °F 60% 30.00 in 10.0 mi South 17.3 mph 25.3 mph N/A   Clear
11:32 PM 14.7 °F -0.5 °F 3.4 °F 61% 30.00 in 10.0 mi South 15.0 mph 21.9 mph N/A   Clear
11:52 PM 14.9 °F -0.3 °F 3.6 °F 61% 29.99 in 10.0 mi South 15.0 mph 26.5 mph N/A   Clear